Location: G�ppingen
(48.7089°N, 9.6563°E)
Time: 22:13:24
(UTC+02:00)

M-CUBED/EXP-1 PRIME - Pass Details

Date: 20 March 2019
Orbit: 430 x 671 km, 101.7° (Epoch: 23 April)

Event Time Altitude Azimuth Distance (km) Brightness Sun altitude
Rises 19:07:54 0° 37° (NE) 2,923 ? -6.5°
Reaches altitude 10° 19:11:01 10° 61° (ENE) 2,048 ? -7.0°
Maximum altitude 19:13:31 15° 95° (E) 1,777 ? -7.4°
Drops below altitude 10° 19:16:02 10° 129° (SE) 2,083 ? -7.8°
Sets 19:19:14 0° 153° (SSE) 3,004 ? -8.3°
